Theta_e
316 320 318 317 316 320 319 319 319 319 319 319 318 318 316 314 313 312 310 309 308 307
312 313 313 313 314 314 313 311 313 313 311 311 311 312 311 309 308 307 306 306 304 305
305 307 308 310 306 307 306 306 306 304 303 302 302 303 303 300 299 297 295 295 294 294
299 299 300 301 301 300 300 299 298 297 296 295 294 294 292 291 291 290 290 290 289 289
294 294 294 294 294 295 294 294 293 293 291 289 289 289 289 288 288 287 287 287 287 286
291 291 291 290 291 291 291 289 288 288 287 286 286 286 286 286 286 286 286 285 285 286
288 288 289 289 288 287 286 286 286 285 285 285 285 285 285 285 284 284 285 285 285 285
286 287 286 285 285 284 284 284 284 284 283 284 285 286 285 284 284 284 284 283 283 283
285 284 284 284 283 284 283 283 283 282 282 282 285 290 290 286 284 283 283 283 282 282
284 283 283 283 283 282 282 282 282 281 282 281 284 289 289 286 283 282 282 282 282 283
283 282 282 282 281 281 281 281 280 280 280 280 284 288 287 286 283 283 283 283 283 282
282 281 280 279 279 280 279 278 278 279 278 278 279 287 287 285 281 282 282 283 283 283
280 279 278 279 278 277 277 278 279 279 278 278 275 283 286 285 281 277 281 282 283 284
278 277 277 276 275 274 275 277 274 275 275 273 274 278 284 285 283 283 282 282 279 281
Wind_Speed
7 5 4 4 2 3 2 2 2 3 3 2 2 2 3 2 2 3 2 4 1 1
6 6 5 6 5 5 4 4 5 7 7 5 6 6 6 5 3 5 4 5 4 2
5 6 7 6 7 7 5 6 7 7 8 5 7 7 7 6 5 6 4 4 5 5
6 6 7 6 9 7 6 7 7 7 7 6 7 7 7 6 6 7 6 5 5 5
7 7 7 6 9 8 8 6 7 8 8 7 7 6 7 7 6 6 6 6 6 6
6 7 8 8 9 9 8 6 6 7 7 7 6 7 6 6 6 6 5 5 5 4
6 5 8 8 9 8 7 7 7 7 7 7 6 6 6 6 6 6 5 5 5 5
6 7 7 8 8 7 7 6 6 7 6 6 6 4 5 5 5 5 5 5 5 5
7 7 7 7 7 7 7 6 6 6 6 6 3 9 10 6 5 5 4 3 3 3
6 7 6 6 6 6 6 5 5 5 5 5 4 9 10 9 3 4 3 3 2 2
6 7 6 6 6 6 4 5 4 5 5 5 4 7 6 5 3 2 2 2 3 4
6 6 6 6 6 4 4 3 3 4 4 4 2 3 5 4 2 0 1 2 3 4
6 6 6 6 6 2 2 4 3 4 3 3 3 3 4 2 1 1 2 2 3 8
5 6 6 5 2 4 4 4 4 4 3 4 3 4 5 5 1 1 1 3 2 3
Wind_Direction
180 191 188 177 167 152 118 91 94 133 134 139 149 170 145 110 106 109 106 108 113 96
180 159 148 114 104 92 93 86 73 80 76 69 79 81 85 81 49 84 56 44 50 57
107 107 107 115 108 92 85 87 86 82 82 55 68 67 74 70 50 76 53 43 49 42
86 84 88 99 102 88 83 86 86 84 82 76 74 67 80 77 69 74 68 46 53 48
98 97 96 105 88 92 85 69 93 94 89 79 71 69 76 76 64 71 59 41 39 29
87 96 101 93 98 93 97 88 79 84 82 80 72 73 67 75 71 68 64 50 42 21
91 95 98 96 92 93 90 92 84 77 86 83 79 76 75 76 72 61 50 38 35 27
97 89 90 92 91 90 87 90 91 93 78 76 74 77 85 75 69 61 50 41 35 33
104 102 100 101 97 95 89 84 82 79 89 88 73 75 74 80 75 68 68 63 50 39
123 115 113 109 105 99 97 104 97 93 93 91 74 75 74 74 80 87 72 54 21 348
127 125 123 113 105 104 103 109 93 75 67 76 62 85 95 111 115 91 51 7 331 321
137 131 126 117 117 104 102 93 95 96 90 102 90 98 111 123 105 15 305 298 303 309
133 133 127 129 126 112 118 118 116 112 98 108 70 18 17 34 185 295 285 321 332 321
123 124 125 125 115 134 119 96 65 85 67 72 72 18 48 21 27 272 278 326 287 275